Location: Fontevrault
(47.1823°N, 0.0493°E)
Time: 02:54:03
(UTC+00:00)

Meteor 2-10 - Visible Passes

Search period start: 23 October 2021 00:00
Search period end: 02 November 2021 00:00
Orbit: 737 x 869 km, 81.2° (Epoch: 22 October)

Date Brightness Start Highest point End Pass type
(mag) Time Alt. Az. Time Alt. Az. Time Alt. Az.
23 Oct 6.8 18:16:11 10° W 18:18:41 14° WNW 18:21:12 10° NNW visible
24 Oct 6.6 17:48:41 10° WSW 17:52:15 19° WNW 17:55:48 10° NNW visible
25 Oct 6.2 17:21:38 10° WSW 17:25:53 26° WNW 17:30:05 10° N visible
28 Oct 6.9 17:48:41 10° WNW 17:49:58 11° WNW 17:51:13 10° NW visible
29 Oct 6.6 17:20:32 10° W 17:23:29 15° WNW 17:26:26 10° NNW visible
